Weather History for McAllen, TX

Change the Weather History Date:

Thursday, February 14, 2013

  Actual Average Record
Temperature  
Mean Temperature 61 °F 64 °F  
Max Temperature 76 °F 75 °F 91 °F (2000)
Min Temperature 46 °F 54 °F 30 °F (1900)
Degree Days  
Heating Degree Days 4 4  
Month to date heating degree days 6 65  
Since 1 July heating degree days 275 492  
Cooling Degree Days 0 3  
Month to date cooling degree days 98 40  
Year to date cooling degree days 186 102  
Growing Degree Days 10 (Base 50)    
Moisture  
Dew Point 40 °F    
Average Humidity 52    
Maximum Humidity 82    
Minimum Humidity 21    
Precipitation  
Precipitation T in 0.05 in 1.67 in (1998)
Month to date precipitation 0.01 0.61  
Year to date precipitation 0.99 1.66  
Sea Level Pressure  
Sea Level Pressure 30.08 in    
Wind  
Wind Speed 4 mph (East)    
Max Wind Speed 17 mph    
Max Gust Speed 22 mph    
Visibility 10 miles    
Events      
T = Trace of Precipitation, MM = Missing Value Source: NWS Daily Summary

Daily Weather History Graph

Daily Weather History Graph

Search for Another Location

Airport:

Trip Planner

Search our weather history database for the weather conditions in past years. The results will help you decide how hot, cold, wet, or windy it might be!

Date:

Astronomy

Feb. 14, 2013 Rise Set
Actual Time 7:09 AM CST 6:25 PM CST
Civil Twilight 6:45 AM CST 6:49 PM CST
Nautical Twilight 6:18 AM CST 7:16 PM CST
Astronomical Twilight 5:51 AM CST 7:43 PM CST
Moon 9:44 AM CST (2/14) 10:53 PM CST (2/14)
Length of Visible Light 12h 03m
Length of Day
11h 16m
Waxing Crescent, 22% of the Moon is Illuminated
Feb 14
Waxing Crescent
Feb 17
First Quarter
Feb 25
Full
Mar 4
Last Quarter
Mar 11
New

Hourly Weather History & Observations

Time (CST) Temp. Dew Point Humidity Pressure Visibility Wind Dir Wind Speed Gust Speed Precip Events Conditions
12:53 AM 54.0 °F 43.0 °F 66% 30.10 in 10.0 mi NE 3.5 mph - N/A   Clear
1:53 AM 54.0 °F 43.0 °F 66% 30.09 in 10.0 mi Calm Calm - N/A   Clear
2:53 AM 51.1 °F 43.0 °F 74% 30.08 in 10.0 mi Calm Calm - N/A   Clear
3:53 AM 48.9 °F 42.1 °F 77% 30.08 in 10.0 mi Calm Calm - N/A   Clear
4:53 AM 46.9 °F 41.0 °F 80% 30.08 in 10.0 mi NW 4.6 mph - N/A   Clear
5:53 AM 48.0 °F 41.0 °F 77% 30.09 in 10.0 mi NNW 4.6 mph - 0.00 in   Clear
6:53 AM 46.9 °F 41.0 °F 80% 30.12 in 10.0 mi NW 3.5 mph - N/A   Clear
7:53 AM 48.0 °F 41.0 °F 77% 30.13 in 10.0 mi WNW 4.6 mph - N/A   Clear
8:53 AM 55.0 °F 43.0 °F 64% 30.15 in 10.0 mi Calm Calm - N/A   Clear
9:53 AM 62.1 °F 45.0 °F 53% 30.16 in 10.0 mi Calm Calm - N/A   Clear
10:53 AM 64.9 °F 44.1 °F 47% 30.16 in 10.0 mi Calm Calm - N/A   Clear
11:53 AM 68.0 °F 41.0 °F 37% 30.14 in 10.0 mi SE 4.6 mph - N/A   Clear
12:53 PM 72.0 °F 37.9 °F 29% 30.10 in 10.0 mi Variable 3.5 mph - N/A   Clear
1:53 PM 73.0 °F 36.0 °F 26% 30.06 in 10.0 mi SSE 4.6 mph - N/A   Clear
2:53 PM 75.0 °F 33.1 °F 22% 30.02 in 10.0 mi ENE 5.8 mph - N/A   Clear
3:53 PM 75.0 °F 32.0 °F 21% 30.02 in 10.0 mi Calm Calm - N/A   Clear
4:53 PM 75.0 °F 32.0 °F 21% 30.01 in 10.0 mi Variable 5.8 mph - N/A   Clear
5:53 PM 73.0 °F 34.0 °F 24% 30.01 in 10.0 mi ESE 10.4 mph - N/A   Clear
6:53 PM 66.0 °F 37.9 °F 36% 30.02 in 10.0 mi East 10.4 mph - N/A   Clear
7:53 PM 63.0 °F 41.0 °F 45% 30.05 in 10.0 mi ESE 11.5 mph - N/A   Clear
8:53 PM 60.1 °F 43.0 °F 53% 30.06 in 10.0 mi ESE 8.1 mph - N/A   Clear
9:53 PM 57.0 °F 44.1 °F 62% 30.07 in 10.0 mi SE 5.8 mph - N/A   Clear
10:53 PM 54.0 °F 44.1 °F 69% 30.07 in 10.0 mi SE 4.6 mph - N/A   Clear
11:53 PM 54.0 °F 43.0 °F 66% 30.06 in 10.0 mi ESE 4.6 mph - N/A   Clear